Regional Weather Roundup
Issued by NWS Binghamton, NY

Home | Current Version | Previous Version | Text Only | Print | Product List | Glossary On
Versions: 1 2 3 4 5 6 7 8 9 10 11 12 13 14 15 16 17 18 19 20 21 22 23 24 25 26 27 28 29 30 31 32 33 34 35 36 37 38 39 40 41 42 43 44 45 46 47 48 49 50
000
ASUS41 KBGM 010910
RWRBGM
RWRBGM
BINGHAMTON REGIONAL WEATHER ROUNDUP
NATIONAL WEATHER SERVICE BINGHAMTON NY
500 AM EDT WED OCT 01 2014

Note: "fair" indicates few or no clouds below 12,000 feet with no
significant weather and/or obstructions to visibility.

* = Station(s) that does not report precipitation, such as rain,
snow, etc, also no thunder or fog.

!NYZ009-015>018-022>025-036-037-044>046-055>057-062-011000
...CENTRAL NEW YORK...

CITY           SKY/WX    TMP DP  RH WIND       PRES   REMARKS
BINGHAMTON     LGT RAIN  58  57  97 SE6       30.02S FOG
CORTLAND       MOCLDY    59  59 100 CALM      30.03R FOG
DANSVILLE      CLOUDY    59  58  96 NW5       30.01S
ELMIRA         FOG       57  57 100 NE3       29.99S VSB 1
ITHACA         CLOUDY    57  57 100 E3        30.02R FOG
HAMILTON       CLOUDY    55  54  94 CALM      30.03R VSB 1/2
MONTICELLO     CLOUDY    55  54  94 E6        30.04S
NORWICH        CLOUDY    57  57 100 CALM      30.03S FOG
ONEONTA        FOG       55  55 100 CALM      30.03F VSB 1/4
PENN YAN       FOG       59 N/A N/A CALM      30.01R VSB 1/2
ROME           MOCLDY    57  56  96 E6        30.03R
SIDNEY         CLOUDY    61  61 100 CALM      30.02S FOG
SYRACUSE       MOCLDY    59  57  93 E7        30.00R
$$

!PAZ038>040-043-044-047-048-072-011000
...NORTHEAST PENNSYLVANIA...

CITY           SKY/WX    TMP DP  RH WIND       PRES   REMARKS
HAZLETON       CLOUDY    55  55 100 CALM      30.03S
SCRANTON       MOCLDY    60  56  86 CALM      29.99F
$$
&&
KEY
WCI = WIND CHILL INDEX
VSB = VISIBILITY
HX  = HEAT INDEX
$$



USA.gov is the U.S. government's official web portal to all federal, state and local government web resources and services.